Hourly Data Report for October 14, 2014

All times are specified in Local Standard Time (LST). Add 1 hour to adjust for Daylight Saving Time where and when it is observed.

KAMLOOPS A
BRITISH COLUMBIA

50°42'09.000" N
120°26'55.000" W
345.30 m
1163781
71887
YKA

Download Data

Hourly Data (October 2014)
Hourly Data Report for October 14, 2014
Temp Definition
°C
Dew Point Temp Definition
°C
Rel Hum Definition
%
Wind Dir Definition
10's deg

Wind Spd Definition
km/h
Visibility Definition
km
Stn Press Definition
kPa
Hmdx Definition


Wind Chill Definition


Weather Definition


TIME
00:00 Legend Double Dagger 13.7 6.8 63 13 9 64.4 96.05     LegendNANA
01:00 Legend Double Dagger 12.8 7.3 69 10 13 64.4 96.05     Cloudy
02:00 Legend Double Dagger 12.9 7.6 70 9 13 64.4 96.15     LegendNANA
03:00 Legend Double Dagger 12.2 8.1 76 10 13 64.4 96.21     LegendNANA
04:00 Legend Double Dagger 12.5 8.0 74 6 12 64.4 96.26     Cloudy
05:00 Legend Double Dagger 13.7 6.6 62 12 5 64.4 96.33     LegendNANA
06:00 Legend Double Dagger 12.5 6.6 67 16 10 64.4 96.44     LegendNANA
07:00 Legend Double Dagger 11.2 3.0 57 32 9 64.4 96.53     Mostly Cloudy
08:00 Legend Double Dagger 13.4 1.8 45 10 9 64.4 96.63     LegendNANA
09:00 Legend Double Dagger 14.6 3.5 47 8 15 64.4 96.70     LegendNANA
10:00 Legend Double Dagger 16.1 3.6 43 10 16 64.4 96.70     Mainly Clear
11:00 Legend Double Dagger 16.8 1.4 35 36 2 64.4 96.69     LegendNANA
12:00 Legend Double Dagger 18.3 1.0 31 21 9 64.4 96.62     LegendNANA
13:00 Legend Double Dagger 17.9 -0.8 28 20 25 64.4 96.57     Mainly Clear
14:00 Legend Double Dagger 17.9 0.2 30 18 25 64.4 96.57     LegendNANA
15:00 Legend Double Dagger 17.5 -1.1 28 19 10 64.4 96.54     LegendNANA
16:00 Legend Double Dagger 16.4 1.0 35 19 4 64.4 96.48     Cloudy
17:00 Legend Double Dagger 15.0 1.9 41 18 9 64.4 96.48     LegendNANA
18:00 Legend Double Dagger 12.1 1.8 49 25 9 64.4 96.49     LegendNANA
19:00 Legend Double Dagger 10.9 1.7 53 31 4 64.4 96.50     Mostly Cloudy
20:00 Legend Double Dagger 10.8 3.2 59 11 5 64.4 96.42     LegendNANA
21:00 Legend Double Dagger 10.2 2.1 57 7 5 64.4 96.43     LegendNANA
22:00 Legend Double Dagger 10.1 2.5 59 10 17 64.4 96.32     Mostly Cloudy
23:00 Legend Double Dagger 9.4 2.7 63 8 11 64.4 96.30     LegendNANA

Notes on Data Quality.

Legend

  • E = Estimated
  • M = Missing
  • NA = Not Available
  • ‡ = Partner data that is not subject to review by the National Climate Archives
Date modified: